This is the latest recevied weather packets stored in our database for station/object KC0AFB. If no packets are shown the sender has not sent any weather packets the latest 10 day(s).
| Time | Temp. | Humidity | Pressure | Rain* | Wind** | Luminosity | Snow |
|---|---|---|---|---|---|---|---|
| 1777782153 | 11.67° C | 60% | 1013 hPa | 0 mm | - | 0 W/m² | - |
| 1777781848 | 11.67° C | 61% | 1013 hPa | 0 mm | - | 0 W/m² | - |
| 1777781546 | 11.67° C | 61% | 1012.6 hPa | 0 mm | - | 0 W/m² | - |
| 1777781243 | 12.22° C | 60% | 1012.9 hPa | 0 mm | - | 0 W/m² | - |
| 1777780940 | 12.22° C | 60% | 1012.7 hPa | 0 mm | - | 0 W/m² | - |
| 1777780637 | 11.67° C | 60% | 1012.9 hPa | 0 mm | - | 0 W/m² | - |
| 1777780335 | 11.67° C | 61% | 1013 hPa | 0 mm | - | 0 W/m² | - |
| 1777780032 | 11.67° C | 61% | 1012.7 hPa | 0 mm | - | 0 W/m² | - |
| 1777779729 | 12.22° C | 60% | 1012.7 hPa | 0 mm | - | 0 W/m² | - |
| 1777779426 | 12.22° C | 59% | 1012.5 hPa | 0 mm | - | 0 W/m² | - |
| 1777779123 | 12.22° C | 59% | 1012.7 hPa | 0 mm | - | 0 W/m² | - |
| 1777778821 | 12.78° C | 58% | 1012.6 hPa | 0 mm | - | 0 W/m² | - |
| 1777778520 | 12.78° C | 57% | 1012.5 hPa | 0 mm | - | 0 W/m² | - |
| 1777778216 | 12.78° C | 58% | 1012.6 hPa | 0 mm | - | 0 W/m² | - |
| 1777777915 | 12.78° C | 57% | 1012.4 hPa | 0 mm | - | 0 W/m² | - |
| 1777777610 | 12.78° C | 57% | 1012.4 hPa | 0 mm | - | 0 W/m² | - |
| 1777777307 | 13.33° C | 57% | 1012.3 hPa | 0 mm | - | 0 W/m² | - |
| 1777777004 | 13.33° C | 56% | 1012.3 hPa | 0 mm | - | 0 W/m² | - |
| 1777776702 | 13.33° C | 55% | 1012.2 hPa | 0 mm | - | 0 W/m² | - |
| 1777776398 | 13.33° C | 55% | 1012.4 hPa | 0 mm | - | 0 W/m² | - |
| 1777776096 | 13.89° C | 54% | 1012.1 hPa | 0 mm | - | 0 W/m² | - |
| 1777775792 | 13.89° C | 54% | 1012.1 hPa | 0 mm | - | 0 W/m² | - |
| 1777775484 | 13.89° C | 54% | 1012 hPa | 0 mm | - | 0 W/m² | - |
| 1777775180 | 14.44° C | 52% | 1012.1 hPa | 0 mm | - | 0 W/m² | - |
| 1777774875 | 14.44° C | 52% | 1012 hPa | 0 mm | - | 0 W/m² | - |
* Rain latest hour (hover to see other rain measurements)
** Current wind speed in m/s (hover to see current wind gust speed)